Location: Boiro
(42.6475°N, 8.8834°W)
Time: 07:18:53
(UTC+02:00)

FALCONSAT-6 - Pass Details

Date: 10 July 2022
Orbit: 555 x 585 km, 97.6° (Epoch: 10 August)

Event Time Altitude Azimuth Distance (km) Brightness Sun altitude
Exits shadow 00:29:12 29° 196° (SSW) 1,069 ? -18.3°
Maximum altitude 00:31:02 55° 260° (W) 707 ? -18.5°
Drops below altitude 10° 00:35:06 10° 338° (NNW) 1,903 ? -18.9°
Sets 00:37:17 0° 343° (NNW) 2,802 ? -19.1°
